Regional Weather Roundup
Issued by NWS Jackson, KY

Home | Current Version | Previous Version | Graphics & Text | Print | Product List | Glossary On
Versions: 1 2 3 4 5 6 7 8 9 10 11 12 13 14 15 16 17 18 19 20 21 22 23 24 25 26 27 28 29 30 31 32 33 34 35 36 37 38 39 40 41 42 43 44 45 46 47 48 49 50
349
ASUS43 KJKL 240310
RWRJKL

EAST KENTUCKY HOURLY WEATHER ROUNDUP
NATIONAL WEATHER SERVICE JACKSON KY
1100 PM EDT THU MAR 23 2017

NOTE: "FAIR" INDICATES FEW OR NO CLOUDS BELOW 12,000 FEET WITH
NO SIGNIFICANT WEATHER AND/OR OBSTRUCTIONS TO VISIBILITY.

* THESE REPORTS ARE NOT UNDER NWS QUALITY CONTROL AND MAY NOT
  REPORT WEATHER SUCH AS PRECIPITATION AND FOG.

KYZ079-080-083-085-087-088-110-112-115-119-120-240400
...EASTERN KENTUCKY...

CITY           SKY/WX    TMP DP  RH WIND       PRES   REMARKS
JACKSON        CLEAR     57  31  37 S5        30.28F
LONDON         MOCLDY    56  35  45 S3        30.29F
SOMERSET*      CLOUDY    55  36  47 S7        30.29F
MONTICELLO*    CLEAR     58  40  51 E8        30.29F
WILLIAMSBURG*  MOCLDY    57  37  47 SE5       30.30S
MIDDLESBORO*   MOCLDY    47  40  76 CALM      30.33R
HARLAN APT*    CLEAR     54  32  43 CALM      30.32S
PIKE CO APT*     N/A     59  30  34 S6        30.29F
BIG SANDY APT* CLEAR     59  30  32 S8        30.28F
MOREHEAD APT*  MOCLDY    57  25  28 SE5       30.26F
ASHLAND*       PTCLDY    46  34  61 CALM      30.24F
$$

KYZ035-036-041-042-044-050-067-078-099-240400
...CENTRAL KENTUCKY...

CITY           SKY/WX    TMP DP  RH WIND       PRES   REMARKS
MT STERLING*   CLOUDY    55  34  44 SW9       30.25F
FLEMING/MASON* CLOUDY    53  32  44 SE7       30.25F
DANVILLE*      CLOUDY    57  37  47 S7        30.26F
LEXINGTON      CLOUDY    54  34  46 S7        30.23F
FRANKFORT      PTCLDY    56  33  42 S5        30.21F
LOUISVILLE     PTCLDY    57  34  41 SE6       30.20F
LEBANON*         N/A     57  39  51 SE12      30.24F
GLASGOW*       CLEAR     56  42  58 SE7       30.22F
BOWLING GREEN  CLEAR     53  43  68 SE6       30.21F
$$

KYZ091>093-OHZ055-061-077-WVZ005-015-034-035-042-240400
...SOUTHERN OHIO/WEST VIRGINIA...

CITY           SKY/WX    TMP DP  RH WIND       PRES   REMARKS
COVINGTON      CLOUDY    53  33  46 SE7       30.21F
COLUMBUS       CLOUDY    48  20  32 SE7       30.23F
DAYTON         CLOUDY    50  28  42 S7        30.21S
WILMINGTON     CLOUDY    50  34  54 S5        30.22F
HUNTINGTON     PTCLDY    52  27  38 E3        30.25F
CHARLESTON     CLEAR     55  23  28 SE8       30.27F
PINEVILLE*     CLEAR     43  28  54 MISG      30.39S
BECKLEY        CLEAR     45  19  35 SE15G23   30.34F
BLUEFIELD      CLEAR     43  19  38 S9        30.37F
LOGAN CO APT*  MOCLDY    57  27  30 S9G16     30.29F
$$

VAZ002-007-008-TNZ017-027-036-066-071-240400
...SOUTHWEST VIRGINIA/EAST TENNESSEE...

CITY           SKY/WX    TMP DP  RH WIND       PRES   REMARKS
WISE*          CLEAR     52  25  35 S13       30.35S
JONESVILLE*      N/A     50  34  53 CALM      30.36S
ABINGDON*      CLEAR     51  24  34 SE6       30.37S
BRISTOL        PTCLDY    54  25  32 SE6       30.37S
MORRISTOWN*    PTCLDY    55  30  38 SE6       30.33S
SEVIERVILLE*   CLOUDY    52  39  62 CALM      30.33S
LAFOLLETTE*    CLEAR     59  37  44 S7G14     30.35R
OAK RIDGE      CLEAR     59  36  42 VRB5      30.36R
CROSSVILLE     CLEAR     53  35  50 S9        30.32S
NASHVILLE      CLEAR     63  43  48 S14       30.23S
$$

...KEY TO REMARKS...
VSB - VISIBILITY IN MILES
WCI - WIND CHILL INDEX
HX  - HEAT INDEX

$$




USA.gov is the U.S. government's official web portal to all federal, state and local government web resources and services.